TITAN 3C TRANSTAGE DEB, 13957

Orbit data source: Space-Track

TITAN 3C TRANSTAGE DEB, 13957 is space debris in HEO originally from a launch on Tue, 21 Dec 1965 UTC launched from the Air Force Eastern Test Range (AFETR). Debris objects in space refer to the collection of defunct objects orbiting the Earth. Examples of debris include non-operational satellites, rocket bodies, and fragments generated from explosions, collisions, or faulty payload assembly.

Loading next visibility...
Identifier
13957, 1965-108W
Orbit
HEO
Country
Flag of USUS
Related business
Manufacturer
Unknown
Mission
Spacecraft
Bus & Motor
Unknown
Mass
Unknown
Launch date (UTC)
1965-12-21 (60 years ago)
Launch vehicle
Unknown
Launch site
Air Force Eastern Test Range (AFETR)
Object type
Payload
Rocket body
Debris
Shape & HBR
Unknown shape, 0.4 m
Radar Cross Section
Medium (>0.1 m² and <1 m²)

Expand to show TLE details & history
Last TLE update: 4 days ago

TLE from 4 days ago
0 TITAN 3C TRANSTAGE DEB
1 13957U 65108W   25285.54358022  .00000052  00000-0  14162-2 0  9999
2 13957  26.7155 333.6094 6730716  74.7254   7.4181  2.80172930380206
Epoch: 2025-10-12T13:02Z
TLE epoch observation values (Epoch: 2025-10-12T13:02:45.331Z)
Latitude
22.48558°
Longitude
-118.33976°
Altitude
1,597.969 km
Speed
9.012 km/s
True Right ascension
06h 34m 49s
True Declination
22° 22' 38"
Sunlit
Object was in daylight at epoch
Visualization orbit readout
Latitude
Unknown
Longitude
Unknown
Altitude
Unknown
Speed
Unknown
Apparent Right ascension
Unknown
Apparent Declination
Unknown
Sunlit
N/A
Visualization observer readout
Local Sidereal Time
11:00:34
Azimuth
Unknown
Elevation
Unknown
Doppler factor
Unknown
Orbital elements
Apogee altitude
29,188.171 km
Perigee altitude
571.737 km
Semi-major axis
21,258.091 km
Eccentricity
0.67307
Inclination
26.7155°
RAAN
333.6094°
Arg. of periapsis
74.7254°
True anomaly
46.76067°
Mean anomaly
7.4181°
Eccentric anomaly
21.63878°
Mean motion
0.70026 °/min
Orbital period
514.1 mins
BSTAR
0.0014162
Loading maneuver chart data...
Computing Atmospheric mass density...

Documentation

Showing up to 5 results
|